User: anonymous
Location: Unspecified
(0.0000°N, 0.0000°E)
Time: 09:25:59
(UTC+00:00)
Language:

Courier 1B - Orbit

View from above orbital plane
View from above orbital plane
View from above satellite
View from above satellite

Ground track
Ground track

The orbit data is extracted from the following two-line orbital elements,

1 00058U 60013A   14258.62725693  .00000127  00000-0  62123-4 0  7618
2 00058 028.3284 317.4949 0165100 308.4576 050.1258 13.46280200655693
Epoch (UTC): 15 September 2014 15:03:14
Eccentricity: 0.0165100
inclination: 28.3284°
perigee height: 963 km
apogee height: 1209 km
right ascension of ascending node: 317.4949°
argument of perigee: 308.4576°
revolutions per day: 13.46280200
mean anomaly at epoch: 50.1258°
orbit number at epoch: 65569

The dashed part of the orbit path shows where the satellite is in the earth's shadow,  

DLR